Stations météo

réclame
Mon MeteoGroup
Bilbao/Aeropuerto, Espagne (8025): Température de l'air & dewpoint: 08.08.2018 19:00:00 - 14.08.2018 19:00:00 (CEST)Bilbao/Aeropuerto, Espagne (8025): Vitesse du vent: 08.08.2018 19:00:00 - 14.08.2018 19:00:00 (CEST)Bilbao/Aeropuerto, Espagne (8025): Direction du vent: 08.08.2018 19:00:00 - 14.08.2018 19:00:00 (CEST)Bilbao/Aeropuerto, Espagne (8025): reduced air pressure: 08.08.2018 19:00:00 - 14.08.2018 19:00:00 (CEST)Bilbao/Aeropuerto, Espagne (8025): visibility: 08.08.2018 19:00:00 - 14.08.2018 19:00:00 (CEST)
Date & Time tt [°C] td [°C] ff [km/h] ff [knt] dd ppp [hPa] vv [km]
14.08.2018 19:00:00 24,0 15,6 16 9 NE 1022,6 -
14.08.2018 18:00:00 23,8 15,7 13 7 NNE 1022,8 -
14.08.2018 17:00:00 24,5 16,0 15 8 NNE 1022,7 20
14.08.2018 16:00:00 25,0 16,6 15 8 N 1022,7 -
14.08.2018 15:00:00 23,7 15,7 15 8 N 1023,0 -
14.08.2018 14:00:00 22,8 15,7 13 7 N 1022,9 20
14.08.2018 13:00:00 21,6 16,5 11 6 N 1023,0 -
14.08.2018 12:00:00 21,7 17,5 15 8 NW 1022,8 -
14.08.2018 11:00:00 21,1 17,6 9 5 W 1022,4 15
14.08.2018 10:00:00 19,4 18,1 5 3 SSE 1022,1 -
14.08.2018 09:00:00 18,7 17,9 11 6 E 1021,8 -
14.08.2018 08:00:00 18,3 17,7 8 4 ESE 1021,4 15
14.08.2018 07:00:00 18,4 17,6 5 3 SE 1020,8 -
14.08.2018 06:00:00 18,4 17,4 2 1 SSW 1020,5 -
14.08.2018 05:00:00 18,4 17,4 4 2 SSW 1020,5 12
14.08.2018 04:00:00 18,6 17,9 2 1 S 1020,4 -
14.08.2018 03:00:00 18,7 17,7 0 0 N 1020,1 -
14.08.2018 02:00:00 18,9 17,6 4 2 WSW 1020,4 -
14.08.2018 01:00:00 19,0 17,8 5 3 WSW 1020,2 -
14.08.2018 00:00:00 19,2 17,9 4 2 W 1019,9 -
13.08.2018 23:00:00 19,1 17,9 9 5 WNW 1019,8 7
13.08.2018 22:00:00 19,5 17,8 18 10 NW 1019,1 -
13.08.2018 21:00:00 20,0 18,0 15 8 NNW 1018,5 -
13.08.2018 20:00:00 21,6 17,1 15 8 NW 1018,1 20
13.08.2018 19:00:00 22,1 17,0 24 13 NNW 1018,1 -
13.08.2018 18:00:00 22,8 17,3 21 11 NNW 1017,7 -
13.08.2018 17:00:00 23,4 17,1 26 14 NW 1017,5 30
13.08.2018 16:00:00 23,6 16,5 26 14 NNW 1017,5 -
13.08.2018 15:00:00 22,9 16,7 21 11 NNW 1017,4 -
13.08.2018 14:00:00 23,0 16,8 16 9 NNW 1017,4 20
13.08.2018 13:00:00 22,6 16,7 18 10 NW 1017,6 -
13.08.2018 12:00:00 21,8 16,8 16 9 NW 1017,3 -
13.08.2018 11:00:00 20,9 17,1 13 7 WNW 1017,0 20
13.08.2018 10:00:00 19,7 17,7 9 5 WNW 1016,7 -
13.08.2018 09:00:00 19,5 18,0 4 2 W 1016,4 -
13.08.2018 08:00:00 19,2 18,4 2 1 SSW 1016,0 8
13.08.2018 07:00:00 18,8 18,1 5 3 W 1015,5 -
13.08.2018 06:00:00 19,4 18,9 11 6 NW 1015,2 -
13.08.2018 05:00:00 19,6 18,8 4 2 WSW 1015,3 7
13.08.2018 04:00:00 19,7 18,9 8 4 NW 1015,5 -
13.08.2018 03:00:00 20,4 19,2 5 3 NNW 1015,5 -
13.08.2018 02:00:00 21,3 18,1 4 2 WSW 1015,4 -
13.08.2018 01:00:00 21,3 17,9 4 2 E 1015,5 -
13.08.2018 00:00:00 21,0 18,0 9 5 ESE 1015,8 -
12.08.2018 23:00:00 21,1 17,9 4 2 SE 1016,2 20
12.08.2018 22:00:00 21,8 18,0 0 0 N 1015,9 -
12.08.2018 21:00:00 22,7 17,8 11 6 NNW 1015,1 -
12.08.2018 20:00:00 24,3 17,3 13 7 NNW 1014,9 25
12.08.2018 19:00:00 24,6 16,1 15 8 NNW 1014,7 -
12.08.2018 18:00:00 25,7 14,6 18 10 NNW 1014,4 -
12.08.2018 17:00:00 25,9 14,5 16 9 NNW 1014,7 25
12.08.2018 16:00:00 26,0 16,9 22 12 NNW 1014,7 -
12.08.2018 15:00:00 26,2 17,1 21 11 NW 1014,7 -
12.08.2018 14:00:00 26,6 17,4 16 9 NNW 1014,7 25
12.08.2018 13:00:00 26,8 18,7 13 7 N 1014,8 -
12.08.2018 12:00:00 25,7 18,2 9 5 NW 1015,1 -
12.08.2018 11:00:00 24,7 19,3 11 6 WNW 1015,3 20
12.08.2018 10:00:00 23,0 18,7 4 2 ESE 1015,4 -
12.08.2018 09:00:00 20,1 18,2 8 4 ESE 1015,5 -
12.08.2018 08:00:00 18,3 17,1 8 4 E 1015,7 20
12.08.2018 07:00:00 17,9 16,8 8 4 E 1015,6 -
12.08.2018 06:00:00 18,1 17,1 5 3 ENE 1015,7 -
12.08.2018 05:00:00 18,0 16,9 8 4 SE 1016,3 15
12.08.2018 04:00:00 18,6 17,6 4 2 ESE 1016,8 -
12.08.2018 03:00:00 18,3 17,1 8 4 SE 1017,7 -
12.08.2018 02:00:00 19,1 17,6 8 4 ESE 1018,1 -
12.08.2018 01:00:00 19,8 18,1 5 3 E 1018,9 -
12.08.2018 00:00:00 20,7 18,3 0 0 N 1019,4 -
11.08.2018 23:00:00 21,0 18,6 9 5 WNW 1019,6 30
11.08.2018 22:00:00 21,4 18,8 9 5 WNW 1019,3 -
11.08.2018 21:00:00 22,8 19,0 18 10 WNW 1018,8 -
11.08.2018 20:00:00 26,3 18,4 11 6 WNW 1018,5 35
11.08.2018 19:00:00 27,6 18,8 11 6 WNW 1018,4 -
11.08.2018 18:00:00 27,4 18,3 16 9 WNW 1018,6 -
11.08.2018 17:00:00 27,6 18,6 18 10 WNW 1019,0 35
11.08.2018 16:00:00 28,2 18,8 18 10 WNW 1019,6 -
11.08.2018 15:00:00 28,8 17,2 5 3 W 1020,4 -
11.08.2018 14:00:00 27,2 16,3 5 3 N 1021,2 35
11.08.2018 13:00:00 26,1 15,7 5 3 ENE 1022,0 -
11.08.2018 12:00:00 24,8 15,8 9 5 ESE 1022,8 -
11.08.2018 11:00:00 23,2 15,1 5 3 SE 1023,4 30
11.08.2018 10:00:00 20,6 15,7 4 2 E 1023,8 -
11.08.2018 09:00:00 18,4 15,4 5 3 E 1024,2 -
11.08.2018 08:00:00 16,8 14,8 4 2 E 1024,3 20
11.08.2018 07:00:00 16,3 14,8 4 2 ESE 1024,3 -
11.08.2018 06:00:00 16,1 14,6 5 3 E 1024,2 -
11.08.2018 05:00:00 16,0 14,4 4 2 ESE 1024,5 15
11.08.2018 04:00:00 15,7 14,2 4 2 ESE 1025,0 -
11.08.2018 03:00:00 15,3 13,8 4 2 SE 1025,6 -
11.08.2018 02:00:00 15,8 14,0 5 3 ESE 1026,1 -
11.08.2018 01:00:00 16,7 14,3 4 2 ESE 1026,3 -
11.08.2018 00:00:00 17,4 14,5 2 1 SSE 1026,2 -
10.08.2018 23:00:00 19,1 14,6 4 2 ESE 1025,9 30
10.08.2018 22:00:00 20,1 14,5 9 5 E 1025,4 -
10.08.2018 21:00:00 21,3 14,5 9 5 ESE 1024,7 -
10.08.2018 20:00:00 23,2 14,5 11 6 E 1024,4 30
10.08.2018 19:00:00 23,8 14,1 16 9 NE 1024,3 -
10.08.2018 18:00:00 24,5 14,9 18 10 NE 1024,2 -
10.08.2018 17:00:00 24,5 14,6 21 11 NE 1024,2 30
10.08.2018 16:00:00 24,9 14,5 18 10 NE 1024,3 -
10.08.2018 15:00:00 25,1 15,3 15 8 ENE 1024,2 -
10.08.2018 14:00:00 25,1 14,0 9 5 E 1024,3 30
10.08.2018 13:00:00 23,0 14,1 5 3 E 1024,9 -
10.08.2018 12:00:00 23,0 14,4 5 3 SSE 1025,3 -
10.08.2018 11:00:00 20,8 14,6 4 2 SSE 1025,9 30
10.08.2018 10:00:00 18,7 14,4 5 3 ESE 1026,0 -
10.08.2018 09:00:00 16,3 14,0 8 4 SE 1026,2 -
10.08.2018 08:00:00 15,2 13,9 8 4 ESE 1026,0 25
10.08.2018 07:00:00 14,8 13,7 4 2 SE 1025,7 -
10.08.2018 06:00:00 15,3 14,2 8 4 E 1025,4 -
10.08.2018 05:00:00 15,1 13,8 8 4 ESE 1025,6 15
10.08.2018 04:00:00 14,7 13,6 9 5 ESE 1025,5 -
10.08.2018 03:00:00 14,6 13,3 4 2 ESE 1025,8 -
10.08.2018 02:00:00 14,9 13,4 4 2 E 1026,1 -
10.08.2018 01:00:00 15,4 13,8 9 5 ESE 1026,0 -
10.08.2018 00:00:00 16,5 14,1 0 0 N 1025,6 -
09.08.2018 23:00:00 17,7 14,2 8 4 WSW 1025,4 15
09.08.2018 22:00:00 18,6 14,4 15 8 NNW 1025,0 -
09.08.2018 21:00:00 19,6 13,3 15 8 NW 1024,3 -
09.08.2018 20:00:00 20,7 14,4 13 7 N 1023,9 20
09.08.2018 19:00:00 20,6 14,6 21 11 NNW 1023,5 -
09.08.2018 18:00:00 21,9 14,7 21 11 NNW 1023,1 -
09.08.2018 17:00:00 22,7 14,6 24 13 NW 1022,7 20
09.08.2018 16:00:00 22,1 13,9 22 12 NW 1022,5 -
09.08.2018 15:00:00 22,7 15,4 22 12 NNW 1022,2 -
09.08.2018 14:00:00 20,6 15,2 28 15 NW 1021,9 20
09.08.2018 13:00:00 21,4 14,7 18 10 NW 1021,4 -
09.08.2018 12:00:00 19,2 14,4 22 12 NW 1021,3 -
09.08.2018 11:00:00 18,5 15,3 5 3 WNW 1020,3 20
09.08.2018 10:00:00 17,1 15,4 11 6 WNW 1019,9 -
09.08.2018 09:00:00 16,7 14,3 11 6 WNW 1019,2 -
09.08.2018 08:00:00 16,6 14,9 4 2 WSW 1018,3 12
09.08.2018 07:00:00 16,4 15,1 4 2 W 1017,5 -
09.08.2018 06:00:00 16,9 14,5 9 5 WNW 1016,5 -
09.08.2018 05:00:00 17,4 14,4 13 7 WNW 1016,0 15
09.08.2018 04:00:00 17,6 14,0 21 11 WNW 1015,8 -
09.08.2018 03:00:00 17,9 14,0 26 14 WNW 1015,6 -
09.08.2018 02:00:00 17,5 14,4 37 20 WNW 1014,9 -
09.08.2018 01:00:00 20,1 19,3 4 2 SW 1012,9 -
09.08.2018 00:00:00 20,2 18,9 2 1 W 1012,9 -
08.08.2018 23:00:00 20,9 18,7 4 2 NNE 1013,4 12
08.08.2018 22:00:00 21,7 18,1 8 4 WNW 1012,6 -
08.08.2018 21:00:00 22,3 18,1 13 7 NW 1011,6 -
08.08.2018 20:00:00 23,9 17,9 8 4 ENE 1011,9 20
08.08.2018 19:00:00 24,4 18,2 11 6 NNE 1011,7 -

tt = Température de l'air
td = dewpoint
ff = Vitesse du vent
dd = Direction du vent
ppp = reduced air pressure
vv = visibility

stations d'obs. à proximité